Wind_Speed
4 3 2 4 5 5 7 7 7 6 5 4 3 3 4 5 6 2 3 6 2 1 7 6 5 6 8 8 7 8 8 5 7 8 8 8 8 9 10 9 9 8 6 6 9 10 10 9 7 6 7 8 10 13 16 20 21 22 23 23 24 24 21 20 19 18 18 18 18 17 16 16 14 13 13 13 12 11 11 10 11 11 11 11 11 10
4 4 6 6 8 7 6 6 6 5 3 1 2 3 4 5 6 4 4 7 3 3 6 4 3 7 8 7 7 7 8 8 11 11 10 11 11 10 11 11 9 6 3 4 6 7 8 8 6 7 9 11 13 16 18 20 21 21 22 23 24 24 22 20 19 19 19 19 19 18 16 15 13 13 14 13 12 11 12 11 11 11 10 10 10 10
1 3 6 7 8 5 5 5 6 4 3 2 2 3 5 4 4 6 5 5 1 4 5 4 2 8 8 7 6 5 8 9 10 15 14 14 13 12 12 11 10 8 5 4 4 5 7 8 8 10 11 13 16 17 19 20 20 20 21 23 24 24 22 20 20 20 19 19 18 16 15 14 13 12 13 12 12 12 12 12 11 11 10 10 10 11
2 4 6 7 7 6 4 4 7 4 1 2 3 3 4 3 1 4 5 4 2 2 5 5 4 6 6 6 5 4 5 5 4 11 12 13 15 14 14 12 10 11 10 7 5 4 6 8 10 11 12 15 18 18 19 21 21 21 22 23 24 24 23 21 21 20 19 18 16 14 14 13 12 12 12 11 12 13 13 13 13 12 12 12 12 12
5 5 3 6 6 7 4 2 6 4 2 3 5 5 4 3 4 6 4 5 5 4 3 2 4 5 4 6 6 5 5 3 1 7 9 10 12 10 9 9 9 10 9 7 7 5 6 7 10 12 12 16 20 18 20 22 21 21 22 23 24 24 23 22 21 19 18 18 17 15 16 14 12 13 13 14 14 15 16 15 14 13 13 13 12 11
7 5 5 6 3 5 5 3 4 6 3 4 5 8 8 8 8 8 3 4 5 5 3 1 3 5 4 5 6 6 5 4 2 6 11 11 10 8 8 9 8 7 6 5 6 5 6 7 9 12 13 16 19 18 20 21 20 20 21 23 24 24 24 22 21 20 19 18 18 18 18 17 16 16 16 17 18 18 17 16 14 13 13 12 12 11
4 3 6 6 4 5 4 4 5 7 4 3 5 10 11 9 8 8 3 2 0 3 3 3 2 4 5 4 5 6 4 4 4 5 10 9 9 9 8 7 7 6 5 4 5 6 7 7 8 12 13 16 18 18 20 20 18 19 21 23 24 24 24 23 21 20 19 18 17 18 19 20 21 20 18 18 20 19 17 16 14 14 13 12 13 12
2 4 5 5 5 5 4 4 6 8 7 4 6 9 9 8 7 7 4 3 3 3 4 4 4 3 4 3 4 5 3 4 5 7 9 9 9 8 6 5 5 6 5 5 6 6 7 7 8 11 13 16 17 17 19 20 18 18 21 23 24 24 24 23 22 20 19 18 17 18 18 19 21 21 20 20 19 18 17 17 16 15 15 14 14 14
3 6 6 6 5 4 5 5 7 9 5 6 6 7 7 7 7 5 5 4 2 2 5 5 2 1 5 4 3 4 3 5 6 8 9 10 8 5 4 5 5 5 5 5 6 7 7 8 10 12 15 16 17 18 18 18 17 18 20 22 22 23 23 22 21 20 18 17 17 18 18 20 20 20 21 20 19 19 18 19 18 17 16 15 14 13
2 5 8 8 5 5 7 6 9 11 6 4 5 5 3 3 3 3 5 3 1 1 5 6 2 2 5 4 2 2 3 5 6 6 6 8 6 5 5 5 6 6 6 6 7 7 7 10 12 12 16 17 15 17 17 15 16 17 18 20 20 21 22 20 20 19 18 18 17 18 20 22 21 20 21 20 19 19 20 21 19 18 16 15 13 12
2 1 4 5 5 7 6 5 8 13 8 2 5 4 5 5 4 3 2 3 2 3 7 5 3 3 3 5 3 2 3 5 5 4 5 6 6 6 6 5 6 6 6 7 7 7 8 13 15 12 16 18 14 15 17 15 15 17 18 19 19 19 20 20 19 18 18 18 18 20 22 24 23 22 21 20 20 21 21 21 19 17 16 14 13 12
3 1 1 3 5 5 4 3 4 7 5 2 3 4 3 2 3 4 4 3 2 5 7 3 3 6 2 4 3 4 5 5 5 6 6 5 5 5 4 4 5 4 5 6 6 6 7 11 14 11 12 17 16 16 18 17 16 17 18 19 19 18 19 19 18 18 18 18 19 21 24 25 24 23 22 22 22 22 22 21 18 17 15 14 13 12
3 3 4 4 4 5 5 2 3 2 2 4 3 4 3 1 2 2 3 0 3 7 5 1 3 4 3 4 4 7 8 7 6 7 5 3 3 2 2 3 4 5 4 3 3 2 2 5 11 11 8 14 18 17 17 18 17 18 18 20 20 19 19 20 19 18 18 18 20 22 24 24 23 22 22 22 22 22 21 20 18 17 16 15 14 13
3 4 3 2 3 4 7 4 2 1 3 6 5 5 4 2 2 1 3 1 3 6 3 1 1 2 2 2 4 8 8 8 7 5 2 3 4 4 4 6 7 7 5 2 2 1 1 2 8 12 8 9 16 17 16 18 18 18 18 19 20 20 19 19 19 18 18 19 20 22 23 22 22 22 22 22 21 20 20 19 18 17 16 15 13 12
2 4 3 5 2 2 7 7 6 4 4 4 4 5 5 4 4 3 4 3 3 4 2 2 0 2 2 1 4 5 5 7 3 2 5 5 6 6 6 7 6 4 2 2 4 4 2 4 6 11 10 6 11 15 14 15 16 16 17 18 20 20 19 19 19 18 19 21 22 22 22 22 22 22 22 21 19 18 19 19 18 17 15 14 12 11
3 4 7 4 1 4 5 5 4 6 3 2 2 5 3 5 5 2 3 4 2 1 1 2 1 2 2 3 5 3 5 9 7 5 7 6 7 8 8 7 4 2 2 2 4 5 4 5 7 10 11 7 8 12 12 11 12 14 16 17 18 19 19 18 18 19 20 22 23 23 22 21 21 21 21 20 18 17 18 18 18 16 14 13 12 11
2 4 7 4 2 4 6 4 4 5 4 1 2 4 4 4 7 4 2 1 3 2 1 1 1 4 2 2 5 6 8 9 8 7 6 6 7 8 8 7 5 3 3 3 3 5 6 6 7 9 12 9 7 11 13 11 9 12 14 14 15 17 18 17 18 18 20 22 23 23 22 22 21 21 21 20 19 18 18 18 17 16 15 14 12 12
3 3 6 2 4 6 3 4 2 2 5 4 3 5 2 2 4 4 2 3 4 2 3 2 1 3 1 1 4 7 7 7 7 7 5 5 7 8 8 7 6 5 5 5 4 4 7 7 5 8 12 14 10 9 14 15 11 11 14 13 11 13 15 16 17 17 19 21 22 23 22 22 22 22 21 20 20 20 19 19 18 16 15 14 13 12
3 2 6 3 5 6 4 3 2 4 1 4 4 4 4 2 1 1 2 1 1 2 3 3 2 2 2 2 4 6 5 5 5 7 7 6 7 7 7 7 6 6 6 6 6 4 6 8 8 9 13 18 18 13 14 17 14 12 15 14 9 9 12 14 15 17 19 20 21 22 23 23 23 22 21 22 21 21 20 19 18 17 15 14 13 12
2 1 5 4 3 3 5 2 1 3 3 2 3 2 2 3 4 2 2 3 3 3 1 2 3 2 3 2 4 6 6 6 4 5 7 7 7 7 7 6 5 6 5 6 7 6 6 8 11 12 13 17 20 18 15 15 14 12 14 15 13 14 18 18 17 18 20 21 22 23 23 23 23 22 22 22 22 20 19 17 16 15 15 14 13 12
2 1 4 5 5 3 2 1 2 4 2 2 3 2 0 2 2 2 1 2 3 4 3 1 1 4 4 1 4 6 6 5 3 4 6 6 7 6 6 6 6 6 6 5 5 5 4 6 9 11 13 16 19 19 17 16 14 13 15 16 19 22 25 23 20 20 20 21 22 22 23 23 23 22 22 22 21 19 18 16 14 14 14 13 13 12
2 2 3 3 4 2 4 5 3 5 5 4 4 4 4 3 4 3 0 1 2 3 4 4 2 5 4 1 3 4 3 3 3 6 6 6 6 5 4 5 5 7 7 6 6 4 3 3 3 6 7 10 14 17 18 17 16 15 16 19 22 23 25 24 23 21 20 21 21 22 23 23 23 23 22 21 20 18 17 16 14 14 14 14 13 12
3 4 2 1 2 3 7 7 3 3 4 3 2 3 3 3 5 5 3 3 2 2 2 3 1 4 3 1 2 2 4 4 5 6 7 6 6 5 6 6 5 6 7 7 6 3 3 5 4 1 2 6 11 15 18 20 19 18 20 21 20 22 25 25 23 21 20 20 21 22 23 23 23 23 22 21 21 19 18 17 16 14 14 14 14 12
2 3 3 1 4 4 6 6 3 2 4 3 2 2 2 1 3 5 5 4 4 3 2 3 0 4 2 3 4 5 6 6 6 7 8 7 6 7 7 6 6 7 7 7 6 4 5 7 6 4 4 5 8 10 13 17 17 17 17 18 20 23 26 25 21 20 20 20 20 22 23 23 23 23 23 22 22 21 20 18 17 15 14 14 13 12
1 1 3 2 3 4 5 5 5 5 4 2 2 4 3 2 4 4 2 3 3 4 4 5 2 4 0 4 5 6 8 9 8 8 8 7 7 7 7 7 8 8 8 9 8 8 8 8 7 7 6 7 8 8 8 9 10 11 12 13 16 19 20 22 21 20 21 21 22 23 24 24 24 23 24 23 23 23 21 20 18 16 16 15 13 13
2 1 3 3 3 3 2 2 3 3 3 2 2 5 6 4 3 2 3 4 3 4 3 5 4 3 3 6 6 6 8 10 11 10 9 8 8 7 7 7 8 8 9 9 9 8 9 8 9 10 10 8 8 8 7 7 7 7 7 6 9 11 11 14 19 21 21 21 22 23 23 24 24 24 24 25 25 24 21 20 18 17 17 15 13 14
3 2 2 5 5 5 5 5 5 2 1 2 5 7 7 5 4 2 4 3 5 4 2 2 4 5 6 7 7 7 9 10 10 9 9 9 8 8 7 8 8 9 8 8 8 9 9 9 10 13 15 12 8 8 8 7 5 5 6 5 5 6 5 9 15 19 20 20 20 21 22 22 22 23 25 25 25 23 22 21 19 17 16 14 13 16
5 3 2 5 4 2 3 4 4 0 3 2 4 7 8 8 6 4 4 3 5 6 1 4 5 7 6 5 7 7 8 9 9 9 8 7 7 7 7 9 11 11 9 9 10 10 10 10 10 13 17 16 14 12 10 9 7 6 6 5 2 4 6 12 17 20 20 21 21 21 21 20 21 21 21 21 20 18 17 18 17 15 15 14 14 15
5 1 0 3 3 2 3 4 3 3 5 4 5 7 8 9 8 5 3 1 4 5 5 6 8 6 4 5 7 7 8 9 9 8 7 7 7 7 8 10 12 11 10 11 10 10 11 10 10 13 17 18 19 18 16 14 13 11 10 7 4 5 9 15 18 18 18 20 21 23 22 21 22 20 17 17 18 16 14 14 15 15 16 16 14 14
4 1 1 3 3 5 6 6 5 4 4 4 7 8 7 7 8 7 4 3 4 5 7 10 10 6 4 4 6 7 7 8 8 7 8 8 8 7 9 11 11 10 10 10 9 9 10 10 11 15 18 20 21 21 19 18 16 15 14 10 5 6 10 15 14 11 12 14 16 18 19 20 22 22 19 18 20 21 21 19 17 17 19 18 16 14
3 1 0 3 3 4 6 6 6 5 5 6 8 10 9 8 8 7 5 5 5 6 9 11 9 5 3 4 7 7 6 8 10 10 10 9 7 9 11 12 11 10 9 10 9 9 10 11 14 16 18 19 21 22 22 21 21 20 18 14 9 5 7 10 9 7 6 7 7 8 10 13 16 18 19 19 20 23 26 24 21 20 20 19 17 15
3 2 0 3 3 2 5 5 6 4 5 6 8 10 10 6 5 4 3 3 2 4 10 9 5 2 3 5 7 7 8 11 12 11 11 9 9 10 11 11 11 9 8 8 8 10 13 13 13 15 17 18 21 24 23 23 25 25 23 21 17 11 7 7 7 6 5 3 3 4 6 7 7 9 13 17 18 19 21 23 21 19 19 19 17 16
3 4 2 2 2 1 3 4 5 3 3 3 4 5 6 4 1 2 3 5 4 3 6 5 4 5 6 6 8 9 9 10 9 8 8 8 9 11 10 9 9 8 8 8 9 12 14 12 13 16 19 20 22 25 24 24 27 27 25 25 23 19 16 15 15 14 12 10 6 4 6 6 5 5 7 11 14 14 15 17 17 16 16 16 16 16
3 4 3 2 2 1 3 4 3 1 1 1 2 2 3 2 2 5 4 5 5 5 5 4 6 8 7 7 9 10 8 9 9 8 7 6 7 8 9 9 7 7 8 8 9 11 12 12 15 19 21 22 23 25 25 26 28 28 27 28 29 27 25 24 23 21 20 18 16 12 8 5 4 3 3 5 8 11 12 13 14 14 15 15 16 17
4 4 2 2 2 2 1 3 2 2 1 1 1 2 2 2 5 8 8 8 7 8 10 10 9 8 8 8 9 10 9 10 10 9 9 8 6 6 8 8 7 6 7 7 8 10 12 14 18 20 22 22 22 25 27 28 30 31 31 31 32 31 29 29 29 28 26 24 22 20 17 13 8 6 5 3 4 7 8 7 7 8 11 12 14 15
6 4 2 2 2 2 1 2 2 1 1 0 1 2 1 1 2 4 7 8 7 5 8 11 10 9 10 9 8 9 9 10 11 9 9 9 8 7 7 8 6 6 7 8 10 12 14 16 18 21 22 22 23 26 26 26 29 33 33 32 32 32 31 31 32 30 28 28 28 26 24 20 17 14 11 6 4 4 4 2 1 2 4 5 7 9
6 5 3 2 1 2 2 2 1 0 0 1 2 2 1 1 2 1 3 4 4 3 5 10 12 10 9 9 9 8 8 9 9 7 8 9 8 7 7 8 6 5 8 12 15 16 18 19 20 22 25 26 27 26 25 25 27 31 33 32 32 32 32 32 31 28 27 28 28 28 28 26 24 21 18 14 10 6 3 2 1 0 1 2 3 4
5 4 4 3 1 2 3 2 1 0 1 1 1 2 1 2 3 2 1 2 3 3 5 8 11 9 8 8 7 4 5 7 6 4 6 6 6 6 7 8 7 7 9 14 16 18 19 21 23 24 26 29 29 26 25 26 28 31 32 31 31 32 32 30 28 27 26 26 26 27 28 28 27 26 24 22 20 16 12 9 6 4 2 1 1 1
7 4 4 4 2 2 4 3 1 1 1 1 2 4 4 3 3 2 2 2 2 4 6 7 9 9 9 8 4 1 3 5 3 0 2 4 5 6 5 6 8 10 11 14 16 17 17 19 21 23 26 27 26 25 26 27 29 31 30 28 29 31 31 28 25 24 25 24 25 26 26 26 27 26 26 25 24 23 20 18 16 12 8 6 3 1
7 4 4 4 3 2 3 2 1 1 0 2 4 6 6 3 2 4 2 1 3 6 6 7 9 8 7 5 2 2 3 4 4 4 2 2 5 6 5 6 8 10 12 15 16 17 18 19 22 24 25 23 22 22 24 25 28 30 27 26 28 29 27 25 23 22 23 23 22 23 23 23 23 23 23 23 22 21 21 20 20 18 17 15 11 7
4 4 2 3 3 3 3 3 1 1 1 3 5 8 8 3 2 3 1 4 5 7 7 7 9 7 4 3 2 2 4 5 7 6 4 5 6 6 8 10 10 12 15 16 17 19 21 23 24 24 22 21 21 22 23 25 28 27 25 26 27 25 22 20 19 19 21 21 21 22 21 21 20 19 19 19 17 16 17 17 17 18 18 18 16 14
3 3 3 2 2 2 3 3 1 1 0 4 8 9 5 1 1 1 2 3 6 8 8 7 6 5 4 4 5 7 7 8 9 7 6 6 6 6 8 11 13 15 17 18 20 22 24 24 24 24 22 21 23 23 24 26 27 25 24 26 25 20 19 18 18 18 19 21 22 22 22 21 20 19 18 17 16 15 15 15 15 14 14 14 14 14
1 1 2 2 1 2 3 3 2 1 1 7 9 6 2 1 1 1 1 4 7 8 8 6 5 4 6 8 9 10 10 9 8 7 6 6 6 7 10 12 13 14 16 18 20 22 24 25 24 24 23 23 23 23 23 25 27 25 24 23 20 18 18 18 17 18 19 20 21 21 21 21 20 19 19 18 17 16 16 16 15 14 13 12 12 12
3 1 1 0 1 2 2 2 2 1 4 7 5 2 1 2 1 1 2 4 6 6 5 5 5 5 7 10 11 10 10 9 8 7 7 6 6 8 10 12 14 15 16 18 18 19 22 24 23 24 23 23 23 23 22 23 24 24 22 19 16 15 16 15 15 16 17 18 18 18 19 19 19 19 19 18 17 17 17 17 16 15 15 13 12 12
2 2 3 2 3 3 3 2 1 2 4 5 3 3 4 5 5 5 5 5 5 4 3 5 7 6 7 10 11 10 8 8 7 6 6 5 5 7 10 11 14 16 17 18 18 18 20 21 21 22 22 21 21 20 20 20 21 21 19 16 14 14 14 13 14 15 16 17 17 16 16 16 16 17 17 17 17 17 17 17 16 15 15 14 14 14
0 1 2 3 3 4 5 4 3 3 4 5 6 6 7 8 7 7 8 7 6 6 5 6 7 7 7 9 10 8 7 7 7 6 6 5 5 8 12 13 14 16 17 17 17 17 17 17 18 18 19 18 18 17 17 17 18 18 16 14 14 14 13 13 13 14 15 15 15 15 15 16 16 16 16 16 17 17 16 16 16 15 15 13 13 14
1 2 3 3 2 2 3 4 4 4 5 6 8 9 9 10 9 9 9 8 7 8 8 7 8 9 8 8 10 9 6 7 7 6 5 5 6 8 12 13 12 13 15 15 15 15 14 15 15 15 15 15 14 14 14 14 15 14 13 12 13 13 12 12 13 14 14 15 15 15 16 16 17 17 17 17 17 17 16 16 15 15 15 14 14 13
1 3 3 3 3 3 3 2 3 5 6 5 6 7 8 9 10 10 9 8 9 10 10 9 9 8 7 7 8 8 6 6 7 7 5 4 6 8 10 12 13 14 14 14 13 13 12 13 13 12 12 12 11 11 11 12 12 12 11 11 11 11 11 11 12 13 14 14 14 15 15 16 17 17 18 18 18 18 18 18 17 16 15 15 15 15
1 2 2 2 4 5 4 3 4 6 7 6 6 6 6 7 9 9 9 9 10 10 10 11 10 9 8 8 7 8 7 5 6 7 6 4 6 9 10 13 14 14 14 13 12 12 11 11 11 10 11 11 9 9 10 10 11 11 11 10 10 10 10 10 11 12 14 14 15 15 15 16 16 17 18 18 19 18 18 17 17 16 14 13 13 14
2 3 2 4 5 2 2 3 3 4 4 3 3 5 6 6 8 8 7 7 8 8 8 8 8 8 9 9 9 9 7 4 6 8 8 7 9 12 13 14 14 14 13 13 12 11 10 10 9 10 10 9 8 8 8 9 9 10 9 8 7 8 9 9 11 13 14 14 15 15 15 15 16 17 17 18 19 19 17 16 15 14 13 12 12 11
2 3 2 4 4 2 3 3 3 3 3 2 2 3 4 4 7 7 6 6 6 7 9 8 7 6 5 5 9 12 10 7 8 10 9 8 11 13 14 14 14 13 11 11 10 10 10 9 8 8 8 7 7 7 7 8 8 8 8 7 7 8 9 10 11 13 14 14 13 13 14 15 16 17 18 18 19 20 20 19 17 15 14 13 13 12
Wind_Direction
128 140 203 199 181 174 203 197 177 176 142 131 163 192 220 248 269 238 243 264 197 32 288 260 248 260 266 267 242 224 219 177 141 155 164 165 175 183 187 189 190 197 200 179 171 173 180 191 198 191 177 169 169 169 167 166 167 169 173 172 172 180 185 180 175 171 168 163 158 159 161 164 166 168 172 174 180 184 184 183 184 185 184 185 187 187
104 173 219 192 179 181 189 179 155 148 136 129 206 252 264 241 261 265 246 260 196 152 265 268 275 272 267 262 246 215 204 193 174 169 171 178 184 188 190 190 188 193 190 162 161 162 163 166 168 170 173 171 166 166 168 166 167 169 173 177 177 179 183 182 179 175 170 167 165 164 166 168 165 167 174 175 176 180 181 182 183 184 183 184 183 181
77 218 214 187 181 154 107 121 128 136 162 157 178 246 266 253 284 290 271 279 157 147 258 299 314 275 280 281 266 222 211 217 192 180 179 179 183 190 191 187 182 184 189 185 169 154 155 156 156 163 173 175 168 166 167 166 170 172 173 178 180 180 181 182 182 178 172 170 171 171 169 167 164 165 171 172 172 174 176 176 177 181 181 179 178 177
206 239 212 181 159 133 108 118 120 114 155 167 181 216 258 266 322 285 291 320 317 221 256 287 306 284 304 321 304 280 263 276 210 188 186 184 188 192 190 185 182 183 186 185 175 159 153 153 159 169 177 171 167 169 168 169 173 173 174 177 178 179 179 179 180 179 174 170 169 168 166 165 164 161 163 164 164 168 170 167 167 170 173 173 174 173
225 235 169 124 133 157 179 159 130 150 265 247 215 207 234 251 217 229 278 330 324 312 249 251 329 305 332 349 327 320 317 322 173 177 188 201 201 193 184 183 186 185 186 181 178 169 149 155 166 177 179 164 167 174 171 173 176 173 174 176 177 178 177 178 179 179 175 167 163 159 157 159 155 150 157 157 156 163 164 160 160 162 167 168 166 167
248 234 131 107 116 156 175 208 178 177 220 282 236 206 210 225 229 239 278 0 356 335 288 83 15 298 320 348 323 329 340 331 295 190 192 200 200 194 185 182 181 178 180 174 175 164 143 156 165 173 177 163 167 179 177 178 178 175 177 176 176 177 176 177 178 178 177 170 166 163 161 160 155 150 158 161 159 161 160 158 158 159 163 163 161 165
252 195 156 154 152 146 161 236 225 171 164 277 240 201 206 217 230 246 238 99 66 267 289 46 105 263 308 347 323 323 327 314 297 223 203 199 196 200 193 179 167 168 173 155 153 152 147 164 164 166 173 164 167 180 181 181 180 178 179 178 177 177 176 177 176 178 178 174 173 174 172 169 163 158 161 165 162 159 158 158 158 158 159 160 162 163
175 148 156 153 140 145 164 240 222 159 140 246 228 179 184 204 220 232 190 168 234 260 318 19 117 224 296 303 294 300 299 302 277 229 213 208 205 202 185 153 145 163 177 157 149 151 154 169 163 160 168 166 169 180 182 183 183 180 180 181 179 177 176 176 177 178 179 179 179 178 174 169 167 162 161 164 161 158 158 158 158 157 156 159 161 161
153 157 173 154 137 169 197 210 185 155 164 245 214 164 168 185 196 190 157 189 252 350 312 308 109 177 277 271 298 316 303 283 255 231 217 211 209 195 159 132 133 147 155 148 148 155 159 161 156 159 163 163 171 181 185 186 183 179 179 181 179 176 176 176 177 179 181 183 183 178 172 164 162 161 159 161 161 160 160 158 156 157 157 159 160 161
188 187 178 152 153 203 215 203 167 167 204 231 165 140 107 97 118 128 137 166 91 42 263 264 171 182 279 280 287 319 290 268 253 242 222 211 201 171 150 143 144 139 137 146 149 155 163 155 151 156 158 161 173 181 185 188 182 177 177 178 177 175 176 176 179 181 180 184 185 180 171 162 158 158 158 160 161 161 161 158 157 159 160 160 160 159
273 211 151 148 181 199 198 192 179 185 196 145 115 103 62 43 42 61 86 102 101 261 259 257 184 173 275 284 246 208 257 276 275 264 234 215 197 174 166 162 155 142 138 148 148 154 160 153 153 154 153 159 171 177 183 189 181 177 178 176 175 175 177 177 180 182 180 183 186 181 172 164 161 160 160 162 163 163 163 160 160 162 162 163 164 162
330 37 177 224 211 183 163 196 222 211 196 110 82 90 81 353 19 32 3 49 145 251 264 262 163 147 181 272 278 275 278 283 268 255 249 231 208 188 174 154 142 129 134 146 148 158 160 152 156 157 148 154 163 169 179 186 183 179 179 177 174 174 178 178 180 183 180 182 184 180 174 168 164 163 164 165 166 166 166 163 163 166 166 169 172 172
300 223 242 270 236 182 167 228 305 315 162 130 106 98 104 322 27 20 304 241 214 250 257 241 139 148 202 243 281 301 299 292 263 249 253 238 203 161 72 61 65 59 66 96 105 138 178 147 153 163 154 148 155 164 173 180 184 181 179 180 176 174 178 179 180 181 179 182 184 180 178 174 170 169 170 171 172 173 173 169 168 171 172 175 178 179
295 298 282 262 274 198 165 190 253 227 167 156 150 143 143 124 84 280 270 253 260 259 263 345 145 202 254 261 301 308 309 301 270 235 186 143 125 100 79 70 68 58 47 61 103 109 319 61 137 162 171 149 150 161 169 172 178 179 178 181 178 174 177 178 178 179 179 183 186 184 183 182 179 178 179 178 178 179 181 179 175 175 178 181 180 179
189 314 254 192 250 186 171 199 201 161 151 171 165 139 145 155 149 199 222 206 252 262 289 329 149 171 198 289 306 297 319 341 338 109 104 109 111 105 94 77 69 68 75 135 141 132 97 41 102 150 165 156 147 156 164 165 171 176 177 179 179 174 175 178 179 179 181 185 188 188 186 186 185 184 184 182 180 181 183 182 180 179 181 184 181 179
153 252 254 234 214 160 186 223 158 117 121 211 134 110 154 181 153 154 186 171 189 220 306 326 251 207 214 283 317 332 15 18 24 53 70 82 88 91 91 86 77 59 72 106 133 142 127 68 72 127 148 146 143 159 167 163 167 177 178 180 181 176 174 180 183 183 186 188 189 189 187 187 186 184 181 179 178 179 179 180 183 184 183 182 178 175
127 259 275 312 308 206 202 204 156 153 182 170 129 169 216 172 126 117 188 91 75 140 247 349 303 308 317 308 333 8 29 29 27 34 55 73 78 82 89 101 109 99 80 83 120 145 133 94 67 100 133 141 139 158 170 172 176 182 182 184 183 177 175 181 187 188 190 191 190 190 189 188 187 184 181 177 175 177 178 180 183 182 179 178 176 173
146 258 279 295 275 271 227 158 119 142 145 126 179 203 189 87 94 108 152 11 48 168 267 349 245 293 333 189 329 360 16 19 25 32 41 57 76 84 80 77 77 76 79 71 79 129 137 128 103 106 139 162 170 165 168 177 189 186 184 191 191 181 176 182 190 192 194 194 192 190 190 190 188 186 183 179 176 177 180 182 182 179 176 175 176 174
144 259 288 245 228 292 347 94 23 346 93 140 174 166 110 122 190 102 134 147 107 190 289 328 293 258 190 203 326 343 347 346 11 40 42 43 67 81 78 70 58 59 69 69 71 105 128 136 155 151 151 168 179 183 175 178 188 184 177 183 186 177 176 185 194 195 195 197 195 193 192 192 191 189 186 183 180 180 182 182 182 179 176 174 174 174
111 190 284 273 241 310 1 44 260 294 337 64 117 115 71 131 166 160 143 157 160 168 239 315 333 288 223 246 313 313 324 328 343 53 54 53 67 77 80 79 68 64 74 88 92 100 121 148 178 175 156 160 173 183 184 184 189 175 163 172 186 191 188 189 194 196 196 196 197 196 194 194 195 192 189 185 182 183 183 184 184 182 180 176 175 176
66 126 248 288 323 333 330 315 206 197 173 98 130 169 125 82 133 153 83 95 131 146 168 174 301 271 251 270 308 307 325 322 321 66 64 60 70 80 89 91 92 86 76 79 80 75 113 158 188 185 166 159 164 172 179 180 173 152 152 178 200 199 190 186 190 195 196 196 196 197 196 197 197 194 192 187 185 185 184 186 189 187 186 181 178 178
120 144 197 290 341 323 250 248 206 189 185 165 175 190 174 134 124 128 282 311 102 123 158 158 199 265 269 306 315 318 356 359 25 71 69 57 62 63 64 74 91 92 76 62 57 41 40 93 157 196 184 158 150 151 156 158 157 158 177 197 202 196 189 187 189 191 194 195 196 198 200 200 199 196 193 189 187 187 187 190 193 192 191 185 181 181
140 113 112 258 260 246 257 259 222 180 172 151 169 176 147 129 122 132 191 216 105 90 144 119 133 266 274 53 59 54 74 66 63 81 79 61 50 39 38 50 64 78 81 76 69 50 27 50 74 156 162 139 140 141 148 159 171 186 200 201 193 190 194 194 191 189 190 193 195 198 200 199 198 196 193 190 189 188 190 194 195 194 192 186 183 185
103 81 71 318 295 301 300 304 337 57 87 71 11 33 81 167 145 143 172 172 134 159 143 86 75 263 293 62 82 90 91 81 72 81 83 70 52 44 48 56 57 56 63 71 70 58 48 51 51 50 75 105 115 123 144 163 178 190 198 198 193 195 198 197 192 187 187 189 192 195 197 196 195 193 192 191 189 189 192 195 194 194 193 188 186 188
233 107 96 64 359 339 336 339 346 359 30 55 342 341 351 25 84 116 128 81 114 189 160 126 210 256 179 86 86 89 91 82 67 64 69 66 56 49 46 48 51 47 45 50 54 48 44 45 40 38 56 84 97 105 123 141 168 190 197 197 195 195 195 194 192 189 189 191 191 192 193 193 192 192 192 191 190 191 194 194 193 195 194 191 190 188
135 133 121 124 153 193 222 262 266 292 327 336 343 352 2 26 49 137 127 95 151 197 138 135 193 230 139 113 102 93 87 78 65 55 53 51 48 50 52 52 53 51 44 42 47 47 42 36 31 35 43 67 103 125 131 134 155 173 168 167 178 184 188 188 188 190 192 192 190 191 192 190 189 190 190 191 192 194 195 193 193 196 195 193 193 188
100 57 80 117 143 183 197 222 245 255 24 343 338 352 356 346 340 79 112 142 183 152 95 211 192 151 140 132 115 93 77 71 63 54 52 49 45 48 55 62 63 58 49 42 45 48 46 39 31 32 33 40 69 105 124 133 135 132 117 103 141 168 158 160 179 193 198 194 191 191 190 189 191 191 189 190 193 194 195 194 195 197 196 196 198 192
96 55 50 85 89 178 210 248 277 15 92 64 359 357 354 346 355 70 116 167 155 127 137 238 175 137 133 115 91 79 75 76 68 58 55 49 48 53 57 61 62 57 49 42 40 38 40 39 33 31 29 31 45 65 85 96 91 93 90 76 131 173 126 139 173 194 200 197 194 193 190 186 187 187 185 186 187 186 189 191 194 201 204 206 206 198
103 98 19 78 65 41 23 5 16 91 111 86 49 24 5 359 12 54 93 117 122 136 176 174 144 121 93 75 70 73 85 89 80 71 65 54 54 60 61 59 56 50 46 43 38 38 42 41 37 36 31 30 39 50 60 71 78 84 84 88 156 170 131 146 172 186 189 190 191 191 190 184 181 182 184 181 176 175 182 188 195 207 215 219 216 206
101 78 64 94 68 27 13 9 27 74 106 71 42 31 20 18 31 47 51 40 76 110 133 126 111 81 51 67 81 85 93 94 86 77 67 62 64 66 63 61 55 47 48 47 41 43 46 47 48 46 40 35 38 46 53 59 67 73 76 86 126 151 143 156 166 165 166 174 179 182 182 181 181 184 190 190 186 188 194 198 206 216 221 225 223 214
84 108 136 89 65 1 356 3 12 53 94 72 38 23 18 26 34 34 35 39 53 87 105 103 95 74 55 80 85 84 89 87 82 77 71 66 67 68 68 68 63 55 50 50 49 51 53 52 51 49 45 41 42 47 50 53 58 62 64 71 83 117 151 159 154 143 148 161 169 167 164 172 180 182 188 194 195 196 198 204 215 223 224 226 227 222
73 120 147 76 82 325 344 357 347 20 78 69 36 14 4 16 34 20 8 357 349 130 121 111 110 119 112 99 82 69 72 78 77 75 76 72 64 63 65 66 64 57 49 46 49 57 58 53 47 46 44 44 48 51 51 54 59 58 57 63 71 86 107 108 103 106 106 119 164 165 154 168 182 182 188 195 198 201 205 209 218 224 224 226 228 227
95 125 133 98 115 280 327 332 328 2 50 34 12 355 332 322 0 21 358 345 348 116 130 131 139 132 127 117 95 76 69 72 69 64 67 69 67 66 63 59 56 51 46 45 51 59 60 53 49 50 49 48 52 56 57 60 63 60 59 63 69 77 83 79 77 79 76 73 85 129 159 180 195 191 189 194 201 210 214 213 216 221 223 225 226 229
97 115 125 117 123 167 306 324 349 59 123 262 297 312 309 318 56 71 44 17 41 81 91 84 99 110 115 114 107 99 83 71 68 61 54 52 63 74 72 63 54 51 51 49 52 57 58 56 56 57 55 54 56 61 65 67 68 66 65 67 69 70 71 71 71 70 70 71 74 82 103 138 171 171 151 169 194 206 211 215 217 220 225 229 232 236
115 109 116 99 106 136 325 1 68 151 215 243 288 315 353 41 79 84 64 41 61 96 101 95 95 101 101 99 100 102 96 84 74 62 50 42 41 62 75 66 49 49 57 55 54 57 58 61 64 61 57 56 58 62 65 67 70 71 68 67 68 66 65 66 65 63 64 68 69 73 81 94 109 118 120 141 187 196 203 217 226 231 236 241 246 249
136 128 116 83 82 122 67 46 113 188 259 38 7 342 355 8 39 75 62 39 37 79 105 108 109 106 104 103 99 103 104 93 76 57 49 46 34 33 60 64 44 37 57 65 65 63 61 63 68 68 65 63 61 61 62 64 70 72 69 66 66 65 64 64 62 59 60 64 66 69 73 81 89 97 108 125 150 162 172 190 227 247 257 258 256 260
131 133 124 76 74 136 111 82 109 205 201 118 48 7 8 336 324 19 80 43 19 29 97 119 120 113 109 110 112 120 115 90 70 43 32 42 42 36 51 63 56 45 63 75 76 73 70 69 70 71 70 68 65 63 62 63 67 70 69 66 64 63 62 61 60 58 57 60 65 69 72 74 77 80 87 96 102 103 99 79 69 31 343 294 266 270
92 125 142 123 105 113 102 99 109 179 187 110 35 338 295 270 264 229 118 52 40 63 98 121 122 117 118 119 122 134 111 82 65 19 359 17 39 48 53 62 67 66 71 77 78 76 75 73 72 72 71 69 68 67 66 65 65 66 66 64 63 63 61 58 57 58 59 60 64 70 73 74 74 74 74 76 78 76 72 70 70 67 58 25 278 267
52 65 105 102 94 103 109 116 144 180 163 19 327 310 309 279 235 166 80 38 92 116 119 117 117 121 126 127 124 104 96 91 88 51 309 352 24 38 47 62 71 74 75 78 80 79 76 76 76 73 70 68 68 69 69 68 67 66 64 63 63 62 60 56 54 57 61 61 63 66 69 71 71 70 69 67 67 67 65 65 66 67 69 70 63 353
32 25 50 78 86 87 99 106 120 174 166 330 314 310 307 282 145 91 69 240 141 131 135 128 127 131 128 128 123 62 87 121 138 164 181 83 55 48 57 66 67 71 73 75 78 78 74 72 71 67 65 66 68 69 68 68 69 69 68 66 64 62 61 59 56 57 61 61 60 59 60 60 61 61 61 61 60 59 58 59 61 63 65 66 64 57
21 18 49 98 92 63 78 98 54 299 293 323 319 311 304 286 103 86 199 206 145 127 136 135 133 133 122 122 124 77 71 102 121 132 129 104 90 78 76 78 75 73 74 75 78 78 74 70 69 68 67 69 71 71 69 69 71 72 72 71 68 67 67 67 63 61 63 62 61 58 56 55 54 53 53 53 52 51 51 52 53 55 56 55 54 54
22 17 20 56 61 44 86 103 60 279 333 348 326 308 298 281 141 200 223 170 131 130 136 133 126 123 106 95 102 103 99 99 106 110 105 99 99 89 83 81 76 70 71 75 79 80 78 74 72 71 70 70 72 72 71 71 72 72 71 72 73 74 74 72 69 67 65 63 62 60 58 58 57 56 55 54 52 51 51 49 47 47 47 43 38 37
34 45 23 20 29 37 58 65 63 199 317 346 335 317 329 43 251 245 135 125 130 132 131 120 109 116 116 106 101 103 104 100 97 98 94 90 91 87 81 76 72 69 70 73 76 79 81 77 73 71 70 70 71 70 69 70 71 70 69 70 73 74 71 69 67 65 63 61 60 59 58 57 57 57 56 54 52 52 50 46 42 41 40 36 30 24
16 74 139 259 0 64 70 62 61 285 308 329 335 335 5 356 329 0 92 121 123 117 117 108 97 106 118 115 109 106 105 102 100 97 93 87 84 81 75 73 76 79 80 80 80 80 81 79 76 74 72 69 68 66 64 67 69 68 66 65 63 61 59 57 56 55 55 56 56 54 53 52 51 51 51 49 48 48 47 44 41 38 36 33 29 26
11 99 123 82 57 84 90 69 4 315 323 335 358 31 33 36 43 52 69 90 91 82 95 109 105 104 111 113 111 108 107 108 105 101 99 93 83 80 78 81 88 90 89 89 88 86 83 82 79 76 72 67 64 61 58 58 61 63 62 58 50 45 43 40 41 44 47 49 49 48 46 43 42 43 43 43 43 44 45 44 42 41 40 36 33 31
120 107 97 89 98 95 71 42 11 17 34 38 43 46 47 48 49 56 65 69 69 68 74 93 106 107 106 108 107 103 106 112 106 100 102 99 86 85 88 91 95 98 97 95 93 91 87 82 77 73 70 65 60 57 54 50 52 55 54 45 37 32 29 29 34 40 43 41 39 37 35 33 34 34 33 33 35 37 41 42 42 43 44 43 40 36
6 71 74 77 98 90 56 26 14 36 52 58 64 66 62 59 57 60 65 66 70 76 75 79 94 97 93 97 103 105 108 111 107 102 102 98 89 87 92 95 97 99 101 100 98 94 88 81 77 73 70 66 59 55 53 50 50 51 45 35 30 23 18 23 32 38 39 37 34 33 30 29 29 27 26 26 26 28 31 34 36 37 36 36 35 32
0 76 74 58 55 74 80 64 56 64 59 54 66 75 76 74 72 71 73 73 71 72 70 71 80 89 89 90 99 107 106 105 112 115 107 97 98 98 100 104 106 107 108 107 105 99 92 91 90 86 81 77 69 58 54 51 49 46 38 34 31 23 23 33 39 41 44 44 43 41 37 33 30 27 26 25 25 26 28 27 30 34 35 32 27 21
337 44 57 77 84 85 94 123 119 87 61 46 58 75 82 87 85 80 79 79 77 75 72 66 69 86 103 110 113 113 109 107 116 118 115 110 111 112 112 113 114 115 115 113 109 104 101 103 104 102 97 92 82 67 59 53 46 39 33 33 32 29 36 50 54 54 55 53 49 45 39 35 32 29 28 28 27 28 29 25 24 27 30 29 25 17
48 67 66 92 103 122 187 169 140 108 81 62 77 96 103 108 106 99 95 94 93 96 96 85 77 86 106 124 132 125 117 124 130 123 123 129 129 127 126 123 120 119 117 114 109 106 105 107 109 108 104 99 87 70 59 51 45 39 36 40 45 45 52 61 62 61 58 52 46 41 37 37 38 36 33 29 23 21 24 27 27 27 25 22 17 11
118 151 157 132 136 199 213 167 126 109 116 116 84 96 109 119 115 112 114 115 116 123 126 121 113 101 91 106 128 130 129 140 143 131 123 129 138 137 132 128 125 122 119 115 109 105 106 109 109 106 103 97 82 63 51 44 42 43 47 58 65 64 64 66 65 61 56 49 44 43 44 45 45 39 34 29 22 18 18 21 25 29 30 26 16 9
Height
756 763 767 768 770 769 767 766 766 769 770 770 773 775 775 775 772 769 766 758 756 762 759 753 755 755 749 747 746 746 747 751 754 754 754 755 755 754 754 755 756 756 755 757 760 761 762 763 764 766 769 772 774 775 777 777 779 780 782 784 786 788 790 791 793 795 796 797 799 801 803 804 807 809 811 813 814 816 817 819 820 821 823 824 825 826
757 764 766 765 765 762 762 765 766 769 771 771 773 774 775 777 773 767 764 758 755 763 759 753 757 753 748 749 746 744 747 750 750 752 753 754 753 752 752 754 755 755 756 758 760 761 762 763 765 767 769 772 773 774 776 777 778 780 781 783 785 787 789 791 793 794 796 798 799 800 803 804 807 809 810 813 814 816 817 818 820 821 823 824 825 826
763 766 764 761 760 760 764 768 769 770 771 772 774 776 776 775 772 766 762 758 757 762 757 754 759 754 749 752 749 747 747 744 743 744 746 749 750 751 750 752 754 755 756 758 760 761 762 764 765 767 769 771 773 775 776 776 778 779 781 783 785 787 789 790 792 794 796 798 799 801 803 805 807 809 811 813 814 816 817 818 820 821 822 824 825 826
767 763 758 758 759 761 766 769 770 771 772 774 774 776 776 774 774 769 763 759 757 759 756 755 759 755 753 753 748 750 750 745 744 742 742 744 745 745 746 748 751 753 756 758 760 762 762 765 766 767 769 771 773 775 775 776 777 779 780 782 785 786 788 790 792 794 795 797 800 802 804 806 807 809 811 812 814 816 817 818 819 821 822 823 824 826
762 757 754 758 761 760 763 767 770 772 773 773 772 773 773 771 771 769 765 762 757 757 757 757 758 754 757 758 752 752 751 747 746 745 745 745 744 744 746 748 751 752 755 758 760 761 763 765 766 768 770 770 773 775 775 776 777 778 780 782 785 787 788 790 791 793 795 797 800 802 804 806 808 809 810 812 813 815 816 818 819 820 821 823 824 826
757 754 753 756 761 761 762 764 767 769 771 772 767 766 767 764 764 765 767 768 764 761 757 757 761 760 762 766 761 757 754 751 749 748 746 746 745 746 747 749 752 754 756 758 760 761 764 766 767 769 770 770 772 775 776 777 779 779 781 782 785 787 788 790 791 793 795 797 799 801 803 805 806 808 810 811 812 814 816 817 818 820 821 822 824 825
753 751 751 754 757 761 763 763 764 766 772 773 762 756 759 761 763 765 767 769 767 763 759 758 764 766 763 766 766 761 758 756 754 750 747 746 746 745 746 749 753 756 758 760 761 762 764 766 767 768 770 771 773 775 776 778 780 780 781 783 785 787 788 790 792 794 795 797 799 801 802 803 805 807 809 811 812 814 816 817 818 819 821 822 824 825
749 750 752 754 756 761 764 762 761 763 768 767 754 750 756 761 764 765 767 770 765 761 761 760 763 765 761 763 766 761 759 758 756 753 748 747 746 745 748 751 754 758 759 760 762 763 765 766 767 768 770 771 773 776 777 779 780 781 782 784 785 787 789 791 793 795 796 798 799 801 802 804 805 807 809 811 813 814 816 817 818 820 821 823 824 826
745 749 751 752 757 762 759 754 756 760 761 754 747 750 753 755 759 761 765 768 766 765 763 760 763 766 762 762 765 761 759 757 753 751 750 747 747 748 750 753 755 757 759 761 762 763 765 765 766 768 770 772 775 777 779 780 781 782 784 786 787 788 790 792 794 795 797 799 800 801 803 805 807 808 810 811 813 815 816 817 818 820 821 823 825 826
742 743 744 747 754 754 749 747 750 754 753 746 747 752 752 754 759 761 765 763 766 771 764 756 760 764 761 761 766 764 760 757 751 748 748 747 748 749 751 753 754 757 758 759 761 762 763 764 766 768 770 772 776 778 780 782 783 784 785 787 788 790 791 793 795 796 798 800 801 802 803 805 807 808 810 812 814 815 816 817 819 821 822 823 825 827
741 739 741 742 743 741 741 745 746 745 745 744 748 752 754 759 758 761 766 763 769 772 759 755 760 761 760 759 762 763 758 756 752 749 748 746 748 750 750 752 753 756 757 758 760 761 762 763 765 768 770 773 777 779 780 782 783 784 786 788 789 791 792 794 795 797 798 800 801 802 804 805 807 808 810 812 814 815 817 818 820 821 822 824 825 827
743 742 742 735 732 735 738 743 746 744 744 745 749 751 756 763 762 765 768 766 775 773 756 760 767 761 760 757 758 761 757 755 753 750 750 749 750 752 752 752 754 756 758 759 760 761 762 762 765 768 770 773 777 779 780 782 783 785 786 788 789 791 792 794 795 797 798 800 801 803 804 805 807 808 810 812 814 816 817 819 820 821 823 824 826 827
744 742 740 733 729 732 736 743 748 749 749 750 753 756 762 770 772 775 776 774 778 768 754 763 767 759 759 760 760 761 756 755 753 749 749 750 752 754 755 756 757 759 761 763 764 765 765 764 765 769 770 773 776 778 781 782 784 785 786 788 789 790 792 793 795 797 798 800 802 803 804 806 807 809 810 812 814 816 817 819 820 821 823 824 825 827
747 742 739 736 731 727 732 742 745 747 752 753 752 755 763 773 779 782 784 785 778 763 757 764 761 756 759 762 763 762 758 755 752 747 746 747 751 755 757 758 759 761 764 766 767 768 769 767 767 771 772 774 776 779 782 783 785 786 786 787 789 790 792 793 795 796 798 800 801 803 804 805 807 808 810 812 814 816 817 819 820 822 823 824 826 827
753 747 736 733 731 726 728 732 732 736 747 750 747 748 754 760 768 773 773 772 769 761 760 762 760 758 760 762 764 761 758 754 750 747 745 745 748 751 755 759 760 761 763 765 766 768 770 770 770 772 775 776 777 780 783 784 786 786 787 788 789 790 791 793 795 796 798 799 801 803 804 805 807 808 810 812 814 815 817 819 821 823 824 825 826 827
755 748 730 726 728 726 725 723 723 732 744 749 746 746 749 744 746 762 769 767 767 765 762 763 765 766 764 762 762 759 757 755 752 750 748 749 750 751 754 759 761 763 764 765 766 768 770 771 772 773 775 777 778 781 784 785 786 787 787 787 788 789 792 793 795 796 798 799 801 803 805 806 808 809 811 813 814 816 818 820 821 823 824 825 826 827
753 745 729 726 727 722 722 720 720 727 735 746 747 742 743 739 737 754 771 776 775 768 768 773 770 769 768 762 760 759 757 758 757 755 755 754 754 755 756 758 761 764 764 765 767 769 770 771 773 773 774 777 778 780 783 785 786 787 787 788 788 789 792 794 796 797 799 800 802 804 806 807 809 810 812 813 815 817 818 820 822 823 824 825 827 827
746 741 729 727 725 719 719 720 720 722 726 738 743 735 738 744 742 747 760 772 775 767 770 777 773 770 769 764 764 765 762 762 761 758 758 758 757 759 760 761 763 764 764 765 767 768 769 771 772 772 772 773 775 778 780 783 785 786 787 790 791 791 793 795 797 799 800 802 803 805 806 808 809 811 812 814 815 817 818 820 822 823 824 826 827 828
742 742 732 727 728 722 719 722 725 726 725 727 730 728 734 745 747 750 757 763 770 772 772 776 778 774 769 768 770 770 768 767 764 761 761 760 760 761 764 766 767 766 766 766 767 768 768 770 771 770 768 768 770 774 777 779 783 785 787 791 793 795 795 797 798 799 801 802 803 805 806 808 810 811 813 814 815 817 818 820 821 823 824 825 827 828
740 745 738 730 730 726 722 726 729 730 728 726 729 731 734 739 743 748 754 754 760 770 776 775 773 771 770 774 774 770 770 770 766 764 763 762 762 763 764 767 768 768 769 769 768 768 767 769 770 768 768 767 768 772 775 779 783 785 787 790 792 793 793 794 797 798 800 801 803 804 805 807 809 811 812 814 815 817 818 820 821 822 824 825 826 828
738 746 743 733 729 729 730 733 734 735 731 729 733 736 737 741 743 745 753 758 756 761 773 776 770 768 771 772 770 768 770 770 767 766 766 765 764 764 764 765 766 768 770 770 770 770 770 770 771 771 769 767 767 770 774 779 783 785 787 789 788 788 788 790 793 796 799 801 802 803 805 806 808 810 812 813 815 817 818 820 821 822 823 825 826 827
736 743 745 738 733 733 734 734 736 737 736 733 730 731 734 738 741 745 755 764 760 757 767 769 762 765 771 769 768 770 769 768 769 768 768 768 766 766 766 765 766 767 770 772 772 773 773 772 774 775 773 771 770 771 775 779 782 784 785 784 784 786 789 789 791 794 797 800 802 803 805 805 807 809 810 812 814 816 817 819 820 822 823 824 826 827
733 739 742 741 740 738 735 733 736 736 737 737 733 734 738 733 732 739 748 756 762 765 770 767 759 763 771 769 768 770 769 769 771 770 770 771 769 768 768 768 770 769 769 772 774 776 777 775 776 776 774 774 773 773 775 777 780 782 782 783 785 787 789 789 791 794 797 800 802 804 805 805 806 808 810 812 813 815 816 818 820 821 823 824 826 827
733 740 743 742 740 737 731 729 733 734 735 738 740 743 745 738 732 734 740 746 754 762 765 762 762 767 770 770 769 770 771 771 772 772 773 773 772 772 772 771 773 772 772 775 777 779 778 777 778 777 775 775 775 775 776 777 779 781 783 784 785 786 788 790 793 796 797 799 802 803 805 805 807 808 809 812 813 814 816 818 820 822 823 825 826 827
734 742 745 748 750 748 742 737 735 734 736 743 748 749 749 746 741 739 744 746 749 762 762 752 759 771 771 770 772 772 773 773 775 776 776 777 778 778 777 777 777 778 778 779 780 781 780 779 779 778 777 777 777 778 779 780 782 783 784 786 786 787 789 791 794 796 797 799 800 802 804 805 806 808 809 812 813 815 816 818 820 822 823 825 826 827
738 747 746 748 755 757 754 752 748 745 746 749 752 751 753 753 746 740 743 741 745 764 765 750 758 773 772 772 775 774 776 777 780 783 783 783 785 784 783 783 782 784 784 784 785 784 784 783 782 780 780 779 779 780 781 782 784 785 786 787 788 789 791 792 794 796 797 798 800 801 803 804 805 807 809 811 813 815 816 818 820 821 823 825 826 827
745 758 756 751 752 754 755 759 761 758 756 755 754 756 762 764 756 744 740 739 745 761 766 761 766 772 771 773 775 776 780 784 787 790 789 790 791 789 789 788 786 787 788 788 788 788 787 787 785 784 783 783 783 783 783 784 786 787 787 788 789 790 791 793 796 797 798 799 800 802 803 804 806 807 808 811 813 815 816 818 819 821 823 824 825 826
745 759 764 761 762 765 766 765 765 762 763 769 769 767 770 770 759 742 735 744 749 751 759 769 770 768 771 776 779 782 787 790 793 795 794 795 794 793 793 791 790 791 791 792 791 791 791 790 788 787 786 785 785 785 785 785 786 787 788 789 790 791 792 794 796 797 798 799 800 801 803 804 806 808 809 811 813 816 818 819 820 822 823 824 825 826
746 759 765 766 768 770 769 766 765 764 769 779 781 777 775 772 763 751 750 760 755 743 751 766 768 771 780 785 787 790 792 793 797 798 797 797 797 796 796 794 794 795 795 796 796 795 795 793 792 792 790 788 787 786 786 787 788 788 789 790 790 791 793 795 795 796 797 798 800 801 803 805 806 808 810 812 814 817 820 821 822 823 823 824 825 826
749 761 766 767 768 769 768 767 767 766 768 776 783 784 778 773 770 766 767 770 760 750 757 767 774 784 791 791 793 794 794 795 798 798 799 799 800 800 799 798 800 799 799 799 799 798 798 797 797 796 795 793 791 790 790 790 790 791 791 791 791 792 795 796 796 797 799 800 802 803 804 805 806 807 810 813 814 816 819 820 821 822 823 824 825 826
747 761 768 766 766 768 772 771 767 765 766 770 779 784 779 773 771 770 770 771 767 765 770 774 781 792 796 794 796 796 795 796 798 801 803 803 803 803 802 802 804 803 802 802 802 801 800 799 799 799 799 798 796 795 794 794 794 793 793 794 793 794 796 798 799 800 801 802 804 805 806 807 808 808 810 812 813 815 816 818 820 821 822 823 824 825
747 762 770 765 763 769 776 776 769 766 763 763 773 785 784 779 777 776 778 780 775 772 774 775 780 791 797 798 799 800 800 800 803 805 806 806 806 806 807 807 807 807 806 805 804 803 802 802 803 803 803 802 800 798 798 798 797 796 797 797 796 797 797 799 800 802 803 804 805 806 807 809 810 810 810 811 813 814 816 817 819 820 822 823 824 825
752 759 764 762 763 771 779 777 770 765 760 763 778 792 791 785 782 781 784 786 780 775 776 776 780 791 799 799 801 804 805 806 808 809 810 810 809 809 810 812 811 811 809 807 806 805 805 807 807 807 807 806 804 803 803 802 800 801 801 801 800 800 800 801 802 803 804 805 806 807 808 810 812 812 812 813 814 815 817 818 819 820 822 823 824 826
756 756 760 763 766 774 779 777 770 766 767 776 789 795 792 788 785 784 787 789 785 783 785 787 790 796 800 800 802 806 808 810 812 813 813 813 813 812 813 814 814 813 811 810 809 809 810 811 811 810 810 809 808 808 807 806 805 805 806 805 804 804 804 804 805 805 806 807 807 808 809 810 812 813 814 816 816 816 818 818 819 820 821 823 825 826
755 756 760 765 769 774 778 774 767 769 779 789 792 791 790 790 788 788 791 793 791 791 793 795 798 801 802 804 806 807 810 813 814 815 816 815 816 816 816 817 817 816 813 813 813 813 813 814 813 813 813 813 813 811 810 809 809 808 809 808 808 808 808 808 808 809 809 809 809 810 811 811 813 813 815 816 816 816 818 819 820 820 821 823 824 826
751 754 760 768 773 775 776 772 770 778 789 792 790 789 790 791 789 787 789 795 797 796 796 799 802 804 806 807 809 810 811 812 813 816 818 818 818 819 818 820 822 820 817 815 815 816 816 816 816 816 816 816 816 814 814 814 813 812 812 812 812 812 812 812 812 813 813 812 812 813 813 814 814 815 816 817 817 817 818 819 820 821 822 823 824 826
748 750 756 766 773 775 778 783 784 785 788 789 790 793 793 793 792 788 789 797 801 798 798 802 804 806 808 809 810 811 810 810 815 820 821 820 821 822 821 822 824 824 822 819 817 818 818 818 818 818 818 818 817 817 818 818 817 815 815 816 816 816 816 815 816 818 818 817 817 816 816 817 817 817 818 818 818 819 819 820 821 821 822 823 824 826
749 750 751 760 772 777 779 786 787 782 783 788 793 795 794 794 795 793 791 797 801 800 801 803 805 808 810 810 811 810 806 810 820 827 826 823 823 823 824 824 826 827 824 821 820 820 820 820 819 819 819 819 819 820 821 820 820 818 817 819 819 819 819 820 821 822 823 822 822 821 820 820 820 820 820 820 820 821 822 822 822 822 823 823 824 826
752 756 755 758 771 776 773 777 782 782 787 796 797 796 794 794 796 793 789 794 801 803 803 805 807 809 810 811 812 810 807 814 827 831 828 825 824 824 825 827 827 827 825 823 822 822 822 822 821 821 820 820 821 823 823 822 822 821 821 823 823 822 823 824 826 826 826 826 826 825 824 823 823 823 823 823 823 823 824 824 823 823 824 824 824 825
756 761 761 762 773 778 773 778 787 791 796 801 800 797 795 794 794 789 784 790 801 803 802 806 809 810 811 812 812 811 810 816 826 829 828 826 827 827 827 828 828 827 826 825 824 824 824 823 822 821 822 822 824 825 824 823 824 824 826 827 826 826 828 829 830 831 830 829 828 827 826 825 825 825 825 824 824 825 825 825 825 825 825 825 826 826
769 772 774 775 780 781 779 783 794 799 801 803 801 798 796 792 788 784 783 792 801 803 803 806 808 810 812 812 811 814 815 817 821 825 826 827 828 828 828 828 828 828 827 826 826 826 825 824 824 824 825 826 827 826 825 825 825 827 829 828 828 830 833 833 834 835 834 832 830 829 828 827 827 827 827 826 826 827 827 827 827 826 826 827 828 828
784 785 786 787 788 790 790 789 791 797 803 806 803 798 793 788 784 785 792 797 799 801 804 806 808 811 813 812 813 816 818 820 822 825 827 827 828 829 829 829 829 829 828 828 828 828 827 827 828 828 829 829 829 828 828 827 827 829 830 829 830 834 835 835 836 837 836 834 833 831 831 830 830 830 829 829 828 828 828 828 827 827 827 828 829 829
798 795 795 801 801 796 792 789 789 795 804 808 804 796 792 791 792 795 799 799 798 801 804 807 810 812 812 813 816 818 820 823 825 827 828 829 829 829 830 830 830 830 830 830 830 830 830 830 831 831 831 832 831 831 830 829 830 831 831 832 834 836 836 836 837 837 836 835 834 834 834 834 833 832 832 831 831 830 829 828 828 827 827 828 829 830
802 798 798 808 809 798 795 800 804 807 811 811 806 801 800 801 800 799 800 800 801 803 805 808 812 813 812 815 818 821 823 826 827 829 830 831 831 831 831 831 831 832 832 832 832 832 831 832 833 833 834 834 833 833 833 832 833 833 833 834 836 837 837 837 837 836 836 835 835 835 835 836 835 834 833 833 832 831 830 830 829 828 828 828 829 829
804 801 801 809 813 810 810 815 817 815 813 812 809 807 806 804 802 801 802 803 805 806 808 810 813 815 816 817 819 823 826 828 830 831 832 832 833 833 833 833 833 833 833 833 834 834 833 833 834 835 835 836 836 835 835 835 835 835 836 837 837 837 837 837 836 836 835 835 835 835 836 836 835 834 834 834 833 833 832 831 831 830 830 830 829 829
804 804 803 807 812 813 815 817 817 815 814 813 811 810 808 807 806 806 805 807 809 810 812 813 815 818 819 819 821 826 829 830 832 833 834 834 835 835 834 835 835 834 835 835 835 835 835 835 835 835 836 837 837 837 838 837 837 837 838 838 838 838 837 837 836 836 835 835 835 835 835 834 834 833 833 833 833 832 832 832 832 832 832 832 831 831
802 802 805 808 811 813 817 820 819 817 816 816 814 813 812 812 812 811 811 813 814 814 816 818 818 820 822 823 825 828 831 833 834 835 836 836 836 836 836 836 837 837 837 837 838 838 837 837 837 837 838 838 839 839 839 839 839 840 840 839 839 838 838 837 836 836 836 835 835 835 834 833 833 832 832 832 832 832 831 831 831 831 831 831 831 831
803 802 806 812 815 817 821 823 820 817 817 817 816 816 817 816 816 816 816 818 818 818 820 822 822 823 825 827 829 831 833 835 835 836 837 838 838 838 838 838 839 839 839 840 840 840 840 840 840 840 840 840 841 841 841 841 841 841 841 841 840 839 838 837 837 836 836 836 836 835 834 834 833 833 832 832 831 831 831 831 831 831 831 830 830 830
805 805 809 814 818 821 823 823 819 818 820 821 819 820 820 819 819 820 820 821 821 822 824 825 826 827 828 830 831 832 834 836 836 836 838 839 839 840 840 840 841 841 841 842 842 842 842 842 842 842 842 842 843 843 843 842 842 842 842 841 841 840 839 839 838 838 837 837 836 836 835 834 834 833 833 832 832 831 831 831 831 831 831 831 831 830
808 810 814 816 818 821 821 819 818 819 823 825 823 822 822 820 820 822 822 823 824 825 826 828 830 830 831 831 832 832 834 836 837 837 838 839 840 840 841 841 842 842 843 843 843 844 844 843 844 844 844 844 845 844 844 844 843 843 842 842 841 841 840 840 840 839 839 838 838 837 837 836 835 835 834 833 832 832 831 831 831 831 831 831 831 831
811 812 812 812 815 817 816 816 818 819 822 825 824 823 823 822 821 822 823 824 825 826 826 828 830 832 833 833 833 833 835 837 838 838 839 840 841 841 841 842 843 843 844 844 844 845 845 845 845 845 845 845 845 845 844 844 843 843 843 842 842 842 841 841 841 840 840 840 839 839 838 838 837 836 836 834 833 832 831 830 830 830 831 831 831 830